星链-3737 (STARLINK-3737 )

导读 | 豆包AI

STARLINK-3737是美国SpaceX公司星链(Starlink)项目中的一颗卫星,于2022年3月19日发射升空,属于星链星座组网卫星,旨在为全球提供高速互联网接入服务,尤其覆盖偏远地区与网络基础设施薄弱区域,是SpaceX大规模低轨卫星星座建设进程中的组成部分,助力全球卫星互联网服务布局。

Basic Information
目录编号:
52114
目录名称:
STARLINK-3737
国际标识:
2022-029AC
轨道中心:
EARTH
卫星名称:
星链-3737
卫星全名:
星链-3737 (STARLINK-3737 )
卫星状态:
在轨 (已飞行1504 天)
发射日期:
2022-03-19 UTC
国别 :
美国 (US)
星等 :
--
Orbit Information
数据来源 国际轨道数据 AOE轨道数据
星历时间 2026-04-30T22:49:09+0800
9小时前
查看轨道信息
2026-04-24T15:00:00+0800
6天前
查看轨道信息
半长轴 6917.879km 6917.834km
偏心率 0.0001196 0.0000848
轨道倾角 53.217° 53.213°
近地点辐角 86.128° 74.661°
升交点赤经 206.006° 234.408°
平近点角 273.985° 106.192°
近地点 538.914km 539.11km
远地点 540.57km 540.284km
周期 95.438分钟 95.437分钟
每日圈数 15.088405 15.088555
Detailed Information
固有亮度:
5
最大亮度:
2.5
卫星平台:
Starlink v1.5
覆盖范围:
全球
运营商:
太空探索技术公司
运营商所在国:
美国
制造商(研发单位):
太空探索技术公司
制造商所在国:
美国
使用方式:
暂无
Satellite Introduction
星链(Starlink)计划是由太空探索技术公司(SpaceX)提出的一个巨型低轨卫星互联网星座项目,计划在2019年至2024年间在太空搭建由约1.2万颗卫星组成的“星链”网络,其中1584颗将部署在地球上空550千米处的近地轨道,并从2020年开始工作。该卫星仍在工作。
2D Orbit Map
3D Orbit Map
Orbit Altitude Analysis Chart
Orbit Inclination Analysis Chart
Orbit Comprehensive Analysis Chart
View Comprehensive Chart